Hourly Data Report for April 01, 2021

OTTAWA INTL A
ONTARIO
Current Station Operator: NAVCAN

45°19'00.000" N
75°40'00.000" W
114.90 m
6106001
71628
YOW

Download Data

Hourly Data (April 2021)
Hourly Data Report for April 1, 2021
TIME
LST
Temp Definition
°C
Dew Point Definition
°C
Rel Hum Definition
%
Precip. Amount Definition
mm

Wind Dir Definition
10's deg

Wind Spd Definition
km/h
Visibility Definition
km
Stn Press Definition
kPa
Hmdx Definition


Wind Chill Definition


Weather Definition


00:00 3.2 1.2 87   36 17 24.1 100.18     LegendNANA
01:00 2.9 -0.4 79   34 14 24.1 100.15     Cloudy
02:00 2.7 -1.4 75   34 16 24.1 100.08     LegendNANA
03:00 2.2 -1.6 76   2 21 24.1 100.07     Snow
04:00 1.0 -0.6 89   3 17 9.7 100.07     Snow
05:00 0.7 -1.0 88   36 22 24.1 100.00     LegendNANA
06:00 0.1 -3.4 77   34 26 24.1 100.24     LegendNANA
07:00 -0.9 -5.7 70   34 30 24.1 100.24   -8 Cloudy
08:00 -1.3 -7.5 63   35 34 24.1 100.30   -9 LegendNANA
09:00 -1.3 -7.7 62   34 32 24.1 100.33   -8 LegendNANA
10:00 -1.0 -8.0 59   32 29 24.1 100.41   -8 Mostly Cloudy
11:00 -1.4 -9.7 53   31 24 24.1 100.39   -8 LegendNANA
12:00 0.2 -10.1 46   32 34 24.1 100.36     LegendNANA
13:00 -0.1 -11.5 42   34 29 24.1 100.34   -6 Clear
14:00 -0.3 -12.3 40   34 36 24.1 100.38   -7 LegendNANA
15:00 -1.8 -14.0 39   35 35 24.1 100.44   -9 LegendNANA
16:00 -3.0 -14.3 42   32 34 24.1 100.52   -11 Mostly Cloudy
17:00 -3.7 -14.8 42   35 29 24.1 100.64   -11 LegendNANA
18:00 -4.7 -15.0 45   33 32 24.1 100.73   -13 LegendNANA
19:00 -4.8 -14.8 46   33 31 24.1 100.75   -13 Cloudy
20:00 -4.5 -14.1 47   35 21 24.1 100.79   -11 LegendNANA
21:00 -4.6 -13.6 50   34 14 24.1 100.78   -10 LegendNANA
22:00 -4.7 -13.0 53   31 13 24.1 100.77   -10 Mostly Cloudy
23:00 -5.5 -12.7 57   30 13 24.1 100.75   -11 LegendNANA

Notes on Data Quality.

Legend

  • E = Estimated
  • M = Missing
  • NA = Not Available*
  • [empty] = Indicates an unobserved value
Date modified: